Zurück zum Katalog

THOR ABLESTAR DEB

AktivLEO
NORAD 260·DEBRIS·🇺🇸 United States

Gestartet Jun 29, 1961 von Cape Canaveral Space Force Station

Loading…

Nächste Überflüge (nächste 24 Stunden)

TLE

AktuellSource: Space-Track

Epoche: Sep 14, 2026, 14:17 UTC

1 00260U 61015CG  26257.59540378  .00000956  00000-0  29948-3 0  9999
2 00260  66.7677 322.2968 0036450  45.1134 315.2921 14.44542438369254

Verfolge THOR ABLESTAR DEB in Echtzeit mit AllMySat

Download on the App Store